Manistique, MI

10:46 AM EST on December 13, 2017 (GMT -0500)
Schoolcraft County

Weather History for KISQ - April, 2014

Change the Weather History Date:

Wednesday, April 16, 2014

  Actual Average Record
Temperature  
Mean Temperature 18 °F -  
Max Temperature 32 °F 45 °F 69 °F (1952)
Min Temperature 5 °F 30 °F 5 °F (2014)
Degree Days  
Heating Degree Days 46    
Moisture  
Dew Point 19 °F    
Average Humidity 87    
Maximum Humidity 96    
Minimum Humidity 69    
Precipitation  
Precipitation 0.01 in - - ()
Sea Level Pressure  
Sea Level Pressure 30.30 in    
Wind  
Wind Speed 5 mph (SE)    
Max Wind Speed 14 mph    
Max Gust Speed 25 mph    
Visibility 8 miles    
Events Snow    
Averages and records for this station are not official NWS values.
T = Trace of Precipitation, MM = Missing Value Source: NWS Daily Summary

Daily Weather History Graph

Daily Weather History Graph

Search for Another Location

Airport or City:

Trip Planner

Search our weather history database for the weather conditions in past years. The results will help you decide how hot, cold, wet, or windy it might be!

Date:

Astronomy

Apr. 16, 2014 Rise Set
Actual Time 6:56 AM EDT 8:33 PM EDT
Civil Twilight 6:25 AM EDT 9:04 PM EDT
Nautical Twilight 5:47 AM EDT 9:42 PM EDT
Astronomical Twilight 5:06 AM EDT 10:24 PM EDT
Moon 10:21 PM EDT (4/16) 7:40 AM EDT (4/16)
Length of Visible Light 14h 39m
Length of Day
13h 36m
Full, 98% of the Moon is Illuminated
Apr 16
Full
Apr 22
Last Quarter
Apr 29
New
May 6
First Quarter
May 14
Full

Hourly Weather History & Observations

Time (EDT) Temp. Windchill Dew Point Humidity Pressure Visibility Wind Dir Wind Speed Gust Speed Precip Events Conditions
12:14 AM 11.1 °F - 9.1 °F 92% 30.20 in 1.2 mi Calm Calm - N/A   Mist
12:35 AM 9.3 °F - 6.8 °F 89% 30.20 in 10.0 mi Calm Calm - N/A   Clear
12:54 AM 10.2 °F 3.8 °F 7.9 °F 90% 30.20 in 10.0 mi WSW 3.5 mph - N/A   Clear
1:15 AM 8.6 °F - 5.9 °F 89% 30.20 in 10.0 mi North - - N/A   Clear
1:35 AM 8.2 °F - 5.2 °F 87% 30.21 in 10.0 mi Calm Calm - N/A   Clear
1:54 AM 8.6 °F - 5.7 °F 88% 30.21 in 10.0 mi Calm Calm - N/A   Clear
2:15 AM 7.9 °F -0.7 °F 5.0 °F 88% 30.22 in 10.0 mi West 4.6 mph - N/A   Clear
2:35 AM 7.5 °F - 4.6 °F 88% 30.22 in 10.0 mi Calm Calm - N/A   Clear
2:54 AM 6.6 °F - 3.7 °F 88% 30.22 in 10.0 mi Calm Calm - N/A   Clear
3:15 AM 6.4 °F - 3.2 °F 87% 30.22 in 10.0 mi Calm Calm - N/A   Clear
3:35 AM 7.0 °F - 3.7 °F 87% 30.22 in 10.0 mi Calm Calm - N/A   Clear
3:54 AM 6.8 °F - 3.7 °F 87% 30.23 in 10.0 mi Calm Calm - N/A   Clear
4:15 AM 7.2 °F 0.3 °F 4.3 °F 88% 30.23 in 10.0 mi West 3.5 mph - N/A   Clear
4:34 AM 5.7 °F - 2.5 °F 86% 30.23 in 10.0 mi Calm Calm - N/A   Clear
4:55 AM 5.7 °F - 2.5 °F 86% 30.23 in 10.0 mi Calm Calm - N/A   Clear
5:15 AM 5.9 °F - 2.7 °F 87% 30.24 in 10.0 mi Calm Calm - N/A   Clear
5:34 AM 5.4 °F - 1.9 °F 86% 30.25 in 10.0 mi Calm Calm - N/A   Clear
5:55 AM 5.4 °F - 2.1 °F 86% 30.26 in 10.0 mi Calm Calm - N/A   Clear
6:15 AM 5.7 °F -1.3 °F 2.7 °F 87% 30.26 in 10.0 mi South 3.5 mph - N/A   Clear
6:34 AM 5.9 °F - 2.7 °F 87% 30.27 in 10.0 mi Calm Calm - N/A   Clear
6:55 AM 5.7 °F -3.2 °F 2.5 °F 86% 30.28 in 10.0 mi South 4.6 mph - N/A   Scattered Clouds
7:15 AM 5.7 °F -3.2 °F 2.7 °F 87% 30.28 in 10.0 mi SSE 4.6 mph - N/A   Scattered Clouds
7:34 AM 12.4 °F 3.1 °F 10.2 °F 91% 30.29 in 10.0 mi SSE 5.8 mph - N/A   Scattered Clouds
7:55 AM 19.6 °F 10.6 °F 18.0 °F 93% 30.30 in 10.0 mi SSE 6.9 mph - N/A   Clear
8:14 AM 21.0 °F 12.4 °F 19.2 °F 93% 30.31 in 10.0 mi SSE 6.9 mph - N/A   Clear
8:35 AM 22.1 °F 13.7 °F 19.8 °F 91% 30.31 in 10.0 mi SSE 6.9 mph - N/A   Clear
8:55 AM 24.4 °F 16.5 °F 17.8 °F 76% 30.32 in 10.0 mi SSE 6.9 mph - N/A   Clear
9:14 AM 25.7 °F 18.0 °F 16.9 °F 69% 30.32 in 10.0 mi SSE 6.9 mph - N/A   Clear
9:35 AM 26.6 °F 16.8 °F 18.3 °F 71% 30.33 in 10.0 mi SSE 10.4 mph - N/A   Clear
9:55 AM 27.3 °F 18.4 °F 19.2 °F 72% 30.33 in 10.0 mi SE 9.2 mph - N/A   Clear
10:14 AM 27.9 °F 17.8 °F 22.3 °F 80% 30.34 in 10.0 mi SSE 11.5 mph 16.1 mph N/A   Clear
10:35 AM 28.4 °F 19.7 °F 23.4 °F 81% 30.34 in 10.0 mi SSE 9.2 mph - N/A   Clear
10:55 AM 29.1 °F 19.4 °F 23.0 °F 78% 30.35 in 10.0 mi SSE 11.5 mph - N/A   Clear
11:14 AM 29.1 °F 18.9 °F 23.5 °F 80% 30.35 in 10.0 mi SE 12.7 mph 18.4 mph N/A   Clear
11:35 AM 29.3 °F 20.2 °F 23.5 °F 79% 30.36 in 10.0 mi SE 10.4 mph - N/A   Clear
11:54 AM 29.7 °F 20.7 °F 24.1 °F 80% 30.36 in 10.0 mi SE 10.4 mph - N/A   Clear
12:15 PM 30.2 °F 22.6 °F 25.0 °F 81% 30.35 in 10.0 mi SSE 8.1 mph - N/A   Scattered Clouds
12:35 PM 29.8 °F 21.5 °F 25.5 °F 84% 30.35 in 10.0 mi SSE 9.2 mph - N/A   Scattered Clouds
12:54 PM 30.6 °F 21.8 °F 25.2 °F 80% 30.35 in 10.0 mi SSE 10.4 mph 17.3 mph N/A   Mostly Cloudy
1:15 PM 30.9 °F 22.8 °F 25.9 °F 82% 30.35 in 10.0 mi SSE 9.2 mph 17.3 mph N/A   Overcast
1:35 PM 30.9 °F 22.8 °F 26.8 °F 85% 30.34 in 10.0 mi SSE 9.2 mph - N/A   Overcast
1:54 PM 31.1 °F 23.7 °F 27.3 °F 86% 30.34 in 10.0 mi South 8.1 mph - N/A   Overcast
2:15 PM 31.3 °F 23.3 °F 27.5 °F 86% 30.34 in 10.0 mi SSE 9.2 mph - N/A   Overcast
2:35 PM 31.6 °F 24.4 °F 27.5 °F 85% 30.34 in 10.0 mi SSE 8.1 mph - N/A   Overcast
2:54 PM 31.8 °F 25.4 °F 27.7 °F 85% 30.34 in 10.0 mi SSE 6.9 mph - N/A   Overcast
3:15 PM 31.6 °F 25.1 °F 27.5 °F 85% 30.34 in 10.0 mi SSE 6.9 mph - N/A   Overcast
3:34 PM 31.8 °F 26.2 °F 27.1 °F 83% 30.33 in 10.0 mi SSE 5.8 mph - N/A   Overcast
3:55 PM 32.0 °F 24.8 °F 26.8 °F 81% 30.33 in 10.0 mi SSE 8.1 mph - N/A   Overcast
4:14 PM 32.0 °F 25.6 °F 24.4 °F 74% 30.33 in 10.0 mi South 6.9 mph - N/A   Overcast
4:35 PM 31.1 °F 24.5 °F 24.6 °F 77% 30.34 in 7.0 mi South 6.9 mph - N/A   Overcast
4:54 PM 30.0 °F 25.2 °F 26.2 °F 86% 30.34 in 1.5 mi South 4.6 mph - N/A Snow Light Snow
5:15 PM 29.3 °F 22.3 °F 27.3 °F 92% 30.34 in 1.0 mi South 6.9 mph - N/A Snow Light Snow
5:35 PM 29.3 °F 22.3 °F 27.5 °F 93% 30.33 in 1.2 mi SSE 6.9 mph - N/A Snow Light Snow
5:54 PM 29.1 °F 22.1 °F 27.5 °F 94% 30.33 in 1.2 mi SSE 6.9 mph - N/A Snow Light Snow
6:15 PM 29.1 °F 20.6 °F 27.5 °F 94% 30.33 in 1.0 mi SSE 9.2 mph - N/A Snow Light Snow
6:34 PM 29.1 °F 20.6 °F 27.5 °F 94% 30.33 in 1.0 mi SSE 9.2 mph - 0.01 in Snow Light Snow
6:55 PM 29.1 °F 21.3 °F 27.9 °F 95% 30.33 in 1.2 mi ESE 8.1 mph - 0.01 in Snow Light Snow
7:14 PM 29.1 °F 22.1 °F 27.5 °F 94% 30.32 in 1.8 mi ESE 6.9 mph - N/A Snow Light Snow
7:35 PM 29.3 °F 21.5 °F 28.0 °F 95% 30.32 in 1.8 mi ESE 8.1 mph - N/A Snow Light Snow
7:54 PM 29.3 °F 20.2 °F 28.4 °F 96% 30.31 in 1.8 mi ESE 10.4 mph - N/A Snow Light Snow
8:15 PM 29.1 °F 18.9 °F 28.0 °F 96% 30.31 in 1.2 mi ESE 12.7 mph 17.3 mph N/A Snow Light Snow
8:35 PM 28.9 °F 18.6 °F 27.3 °F 94% 30.30 in 4.0 mi East 12.7 mph 25.3 mph N/A Snow Light Snow
8:54 PM 28.8 °F 17.9 °F 27.1 °F 94% 30.29 in 2.5 mi ESE 13.8 mph 23.0 mph N/A Snow Light Snow
9:15 PM 28.8 °F 18.4 °F 27.0 °F 93% 30.29 in 5.0 mi East 12.7 mph 21.9 mph N/A Snow Light Snow
9:34 PM 28.9 °F 18.6 °F 27.1 °F 93% 30.30 in 10.0 mi East 12.7 mph 23.0 mph N/A   Overcast
9:55 PM 29.1 °F 21.3 °F 27.1 °F 92% 30.32 in 10.0 mi East 8.1 mph - N/A   Overcast
10:15 PM 29.3 °F 20.2 °F 27.5 °F 93% 30.31 in 10.0 mi East 10.4 mph - N/A   Overcast
10:34 PM 29.3 °F 20.2 °F 27.5 °F 93% 30.30 in 10.0 mi East 10.4 mph - N/A   Overcast
10:55 PM 29.7 °F 20.1 °F 28.0 °F 94% 30.30 in 10.0 mi East 11.5 mph - N/A   Overcast
11:14 PM 30.0 °F 20.5 °F 28.2 °F 93% 30.31 in 10.0 mi East 11.5 mph 16.1 mph N/A   Overcast
11:35 PM 30.0 °F 22.4 °F 28.2 °F 93% 30.31 in 10.0 mi ENE 8.1 mph - N/A   Overcast
11:55 PM 30.0 °F 21.7 °F 28.4 °F 94% 30.31 in 10.0 mi ENE 9.2 mph - N/A   Overcast